Temp
81 83 79 78 78 79 79 80 77 78 74 72 72 72 71 72 76 78 80 81 82 82 80 80 81 80 78 78 78 76 74 73 74 72 72 73 76 76 77 78 78 79 77
79 81 79 78 77 77 77 78 79 79 76 73 73 74 74 74 75 74 77 79 79 78 79 79 78 79 78 77 77 75 72 72 73 69 70 65 72 74 75 76 77 77 76
76 78 78 76 76 75 76 76 77 80 78 75 72 72 71 69 69 71 73 73 72 75 76 77 78 77 77 74 74 73 71 69 72 72 68 62 61 67 71 71 72 73 72
76 79 77 74 74 74 73 76 76 72 71 73 72 69 69 68 69 72 72 73 72 71 69 69 72 74 73 72 72 73 72 70 67 68 70 70 69 62 61 67 68 68 68
75 76 76 73 74 74 71 74 70 73 71 71 71 68 67 71 69 68 68 71 74 70 68 69 69 69 71 71 72 71 71 71 69 69 66 66 66 64 59 57 62 65 64
74 77 74 74 73 72 70 70 71 69 69 70 67 69 67 67 67 65 66 70 72 72 71 71 70 70 70 70 70 71 71 70 70 69 68 64 61 60 59 57 59 60 61
74 74 75 71 71 69 68 66 70 67 66 69 68 70 69 71 69 67 67 67 70 68 69 70 68 68 68 68 69 70 69 68 67 67 66 66 65 65 64 62 60 58 59
74 74 75 74 71 68 62 63 62 63 67 66 67 67 66 65 65 66 65 69 70 70 70 68 69 69 68 66 66 65 65 65 64 65 64 62 60 61 60 59 59 54 54
71 73 74 76 75 66 65 65 65 65 66 66 67 66 66 65 63 62 65 65 65 65 65 65 66 67 67 66 64 63 63 63 61 59 59 57 55 56 56 55 56 55 50
69 70 72 74 73 71 68 67 64 66 66 66 66 65 65 63 64 64 62 62 62 62 63 63 63 63 63 62 62 58 56 54 52 53 52 51 52 53 53 53 53 53 52
67 68 69 72 71 69 66 66 65 62 61 62 63 62 61 61 62 61 60 60 60 60 61 60 61 61 61 58 56 55 54 52 52 53 53 52 54 51 51 50 52 52 51
64 66 68 66 65 63 63 63 62 61 61 60 62 60 60 60 60 59 58 59 58 58 58 58 59 58 58 59 56 53 53 53 53 53 52 49 50 49 50 51 51 51 51
61 63 63 62 62 62 62 62 62 60 60 60 60 59 58 59 58 58 57 57 57 56 56 56 55 55 55 56 57 57 57 55 55 53 51 49 49 48 47 47 46 46 46
59 61 61 62 63 63 62 62 61 60 59 59 58 57 56 56 56 55 55 54 55 55 54 54 53 52 52 53 54 55 54 53 51 50 50 49 49 46 46 45 45 46 46
59 59 61 62 62 61 61 62 60 59 59 57 56 54 54 53 53 52 52 52 52 52 52 51 51 51 50 50 51 51 50 48 45 45 45 45 45 46 47 46 45 45 45
59 60 61 62 61 61 61 60 58 58 57 56 55 53 52 51 51 50 50 50 50 50 50 49 49 48 48 44 46 48 46 46 44 43 43 43 44 44 45 44 44 45 43
60 60 61 61 62 62 62 59 58 58 56 55 54 52 52 51 50 50 49 48 47 48 46 45 46 45 45 45 45 45 40 38 37 36 38 41 43 44 42 44 43 43 43
61 62 62 62 63 63 62 61 59 57 54 54 53 52 52 50 49 48 47 44 44 43 42 39 40 41 43 44 43 41 39 40 40 40 41 40 41 41 41 40 38 38 39
64 65 65 65 64 62 61 60 57 55 53 53 52 51 51 50 48 45 42 42 40 37 37 38 39 40 41 43 42 40 40 38 38 40 42 41 40 40 42 38 36 37 36
63 64 65 65 63 62 61 58 55 54 51 52 52 52 50 49 46 45 41 37 38 36 37 36 39 41 40 41 41 41 40 39 38 39 39 42 42 40 40 37 37 34 35
55 57 61 61 61 61 59 55 54 51 52 52 51 50 48 46 45 41 38 36 36 35 35 36 38 40 42 41 41 42 40 39 37 37 37 38 41 40 39 39 37 37 37
53 53 54 53 55 55 54 51 50 50 49 49 47 46 45 45 42 39 37 36 35 34 34 36 37 41 43 43 41 41 41 42 37 36 37 38 40 39 39 37 39 39 39
52 53 53 52 52 52 53 51 50 49 48 47 46 45 45 43 42 39 36 34 35 34 34 35 36 38 39 41 42 41 40 41 38 38 39 40 39 39 38 39 39 39 34
52 52 51 51 50 51 51 53 52 50 49 47 47 46 43 41 40 38 37 35 34 33 33 35 36 38 37 38 39 38 38 40 37 38 36 37 37 38 37 36 36 35 35
50 51 51 52 52 51 50 51 50 49 47 48 47 44 42 40 38 36 36 35 36 35 33 35 37 37 36 37 40 40 38 37 37 36 34 33 33 32 33 33 34 34 33
50 49 49 48 48 47 47 46 46 46 45 44 45 43 40 40 37 35 34 38 38 38 38 40 41 39 42 42 41 41 41 41 40 34 32 32 32 32 33 32 32 32 33
MSLP
1008.56 1009.11 1010.38 1010.55 1010.64 1011.38 1011.86 1012.44 1013.16 1013.81 1014.59 1015.09 1015.48 1015.81 1016.11 1016.29 1016.29 1016.57 1016.88 1017.05 1017.15 1017.47 1017.86 1018.14 1018.20 1018.50 1018.95 1019.25 1019.52 1019.85 1020.08 1020.23 1020.54 1020.53 1020.35 1020.09 1019.95 1019.94 1019.90 1019.85 1019.88 1019.83 1020.31
1008.18 1008.50 1009.82 1010.51 1010.29 1011.06 1011.74 1012.32 1012.87 1013.50 1014.22 1014.96 1015.36 1015.67 1015.88 1016.31 1016.47 1016.75 1016.82 1017.06 1017.27 1017.40 1017.52 1017.80 1018.14 1018.23 1018.66 1019.08 1019.32 1019.62 1019.90 1020.14 1020.19 1020.30 1020.10 1019.96 1019.45 1019.44 1019.48 1019.53 1019.81 1020.00 1020.28
1007.88 1007.93 1009.24 1010.46 1010.49 1010.93 1011.62 1012.15 1012.60 1012.93 1013.97 1014.70 1015.23 1015.82 1016.09 1016.29 1016.69 1016.87 1017.08 1017.19 1017.61 1017.58 1017.76 1017.81 1018.09 1018.23 1018.44 1018.81 1019.16 1019.43 1019.75 1019.82 1019.93 1020.16 1020.29 1020.14 1019.82 1019.65 1019.66 1020.01 1020.17 1020.40 1020.66
1007.80 1007.76 1008.92 1010.18 1010.77 1011.30 1012.01 1012.08 1012.34 1013.73 1014.10 1014.49 1015.01 1015.40 1015.42 1015.60 1016.11 1015.96 1016.47 1016.91 1017.15 1017.54 1018.04 1018.28 1018.42 1018.21 1018.31 1018.60 1018.82 1019.05 1019.30 1019.70 1019.73 1020.05 1020.16 1019.99 1020.10 1020.13 1020.02 1020.22 1020.42 1020.85 1021.09
1007.67 1007.90 1008.67 1010.16 1010.82 1011.49 1012.30 1012.78 1012.50 1013.32 1014.43 1014.68 1015.07 1015.25 1015.22 1015.46 1016.08 1015.83 1016.63 1016.75 1016.42 1017.04 1017.60 1018.17 1018.65 1018.45 1018.11 1018.25 1018.46 1018.78 1018.98 1019.23 1019.43 1019.45 1019.74 1020.11 1020.27 1020.65 1020.79 1020.52 1020.57 1020.92 1021.47
1007.41 1007.57 1009.04 1010.06 1010.92 1011.57 1012.48 1012.98 1012.86 1013.13 1013.73 1014.66 1014.92 1015.03 1015.74 1015.27 1015.59 1015.98 1016.30 1016.19 1016.22 1016.78 1017.05 1017.47 1017.58 1017.78 1017.72 1017.82 1018.10 1018.41 1018.67 1018.88 1018.94 1019.14 1019.34 1019.76 1020.09 1020.28 1020.56 1020.73 1020.88 1021.08 1021.54
1007.26 1007.79 1008.37 1009.88 1010.79 1011.65 1012.35 1013.03 1013.22 1013.45 1014.15 1014.61 1014.86 1015.06 1015.39 1014.46 1015.92 1015.93 1016.92 1016.70 1016.56 1016.73 1016.78 1017.14 1017.61 1017.72 1017.65 1017.71 1017.71 1018.07 1018.30 1018.56 1018.72 1018.95 1019.20 1019.48 1019.64 1019.68 1020.21 1020.60 1020.84 1021.19 1021.51
1007.01 1007.60 1008.09 1009.04 1010.28 1011.38 1012.29 1012.77 1013.47 1013.97 1014.14 1014.52 1014.80 1014.99 1015.41 1015.76 1016.14 1016.05 1016.79 1016.76 1016.76 1016.86 1017.07 1017.71 1017.89 1017.60 1017.67 1017.84 1017.86 1018.15 1018.32 1018.46 1018.63 1018.92 1019.18 1019.50 1019.70 1020.08 1020.36 1020.67 1021.00 1021.56 1021.70
1006.95 1007.35 1008.04 1008.56 1009.46 1011.28 1012.01 1012.23 1012.87 1013.96 1014.39 1014.70 1014.79 1015.25 1015.92 1016.05 1016.45 1016.85 1016.73 1017.24 1017.34 1017.56 1017.97 1017.95 1017.94 1017.88 1017.81 1017.74 1017.82 1018.04 1018.23 1018.44 1018.51 1018.92 1019.40 1019.76 1020.18 1020.63 1020.79 1021.05 1021.40 1021.58 1021.76
1007.57 1007.86 1008.13 1008.59 1009.63 1010.93 1011.89 1012.63 1012.38 1013.27 1014.44 1014.98 1015.50 1015.86 1016.09 1016.38 1016.79 1017.10 1017.63 1017.87 1017.75 1018.12 1018.36 1018.15 1018.23 1018.22 1018.14 1018.13 1018.12 1018.32 1018.53 1018.71 1019.00 1019.36 1019.87 1020.28 1020.43 1020.94 1021.11 1021.25 1021.64 1021.93 1021.99
1007.86 1008.14 1008.62 1009.00 1009.85 1011.06 1011.95 1012.72 1013.07 1013.37 1015.01 1015.43 1015.94 1016.40 1016.65 1016.95 1017.27 1017.62 1018.11 1018.32 1018.42 1018.67 1018.59 1018.54 1018.38 1018.47 1018.46 1018.69 1018.51 1018.64 1018.94 1019.06 1019.38 1019.69 1020.08 1020.38 1020.83 1021.20 1021.42 1021.62 1021.79 1021.94 1022.23
1008.48 1008.71 1009.00 1009.90 1010.68 1011.66 1012.43 1013.07 1013.67 1014.38 1015.00 1015.41 1015.96 1016.79 1017.24 1017.16 1017.48 1018.13 1018.34 1018.46 1018.54 1018.82 1018.88 1018.85 1018.62 1018.76 1018.96 1018.78 1018.72 1018.96 1019.08 1019.40 1019.58 1019.86 1020.39 1020.67 1021.10 1021.40 1021.69 1021.89 1022.00 1022.09 1022.60
1009.07 1009.34 1009.82 1010.50 1011.21 1011.90 1012.65 1013.37 1013.99 1014.63 1015.27 1015.70 1016.27 1016.77 1017.28 1017.46 1017.89 1018.10 1018.58 1018.56 1018.93 1018.86 1019.01 1019.11 1019.22 1019.36 1019.41 1019.25 1019.09 1019.06 1019.38 1019.44 1019.80 1020.07 1020.48 1020.83 1021.17 1021.45 1022.05 1022.22 1022.69 1022.59 1022.95
1009.36 1009.67 1010.16 1010.70 1011.34 1012.06 1012.74 1013.40 1014.05 1014.72 1015.33 1015.92 1016.48 1016.95 1017.40 1017.80 1018.27 1018.50 1018.79 1018.90 1019.00 1019.29 1019.38 1019.52 1019.75 1019.94 1019.80 1019.76 1019.51 1019.43 1019.67 1019.90 1020.31 1020.66 1020.82 1021.16 1021.41 1021.86 1022.28 1022.46 1022.60 1022.69 1022.84
1009.55 1009.94 1010.30 1010.81 1011.51 1012.25 1012.89 1013.45 1014.16 1014.83 1015.55 1016.13 1016.60 1017.06 1017.72 1018.14 1018.49 1018.77 1018.87 1019.17 1019.40 1019.70 1019.90 1019.76 1020.02 1019.93 1020.26 1020.16 1019.84 1019.79 1020.09 1020.52 1020.97 1021.39 1021.50 1021.98 1022.18 1021.99 1022.28 1022.66 1022.73 1022.54 1023.33
1009.69 1010.05 1010.48 1010.88 1011.55 1012.19 1012.80 1013.60 1014.35 1014.96 1015.51 1016.05 1016.58 1017.30 1017.74 1018.26 1018.58 1018.97 1019.15 1019.50 1019.75 1019.99 1020.06 1020.07 1020.09 1020.07 1020.41 1020.48 1020.51 1020.58 1020.72 1021.12 1021.33 1021.54 1022.11 1022.33 1022.53 1022.67 1022.83 1023.10 1023.34 1023.10 1023.47
1009.46 1009.97 1010.40 1010.85 1011.36 1012.01 1012.77 1013.60 1014.33 1015.00 1015.60 1016.10 1016.69 1017.27 1017.74 1018.21 1018.62 1019.02 1019.35 1019.75 1019.94 1020.27 1020.44 1020.57 1020.39 1020.31 1020.55 1020.71 1020.82 1021.16 1021.38 1021.76 1022.10 1022.28 1022.42 1022.75 1022.62 1023.00 1023.49 1023.43 1023.63 1023.72 1023.83
1009.28 1009.75 1010.24 1010.72 1011.28 1011.98 1012.79 1013.50 1014.22 1014.97 1015.60 1016.14 1016.75 1017.25 1017.64 1018.14 1018.70 1019.22 1019.54 1020.11 1020.29 1020.62 1020.87 1020.90 1020.82 1020.84 1020.87 1021.04 1021.20 1021.68 1022.14 1022.46 1022.67 1022.65 1022.74 1022.82 1022.89 1023.26 1023.75 1023.68 1023.99 1024.23 1024.40
1009.08 1009.48 1010.00 1010.49 1011.18 1011.97 1012.76 1013.50 1014.28 1014.93 1015.55 1016.02 1016.59 1017.17 1017.70 1018.19 1018.77 1019.37 1020.02 1020.36 1020.68 1020.99 1021.13 1021.06 1021.15 1021.16 1021.16 1021.38 1021.70 1021.79 1022.24 1022.77 1023.24 1023.06 1022.92 1022.74 1023.18 1023.60 1023.81 1024.01 1024.22 1024.48 1024.80
1009.66 1009.67 1009.99 1010.53 1011.20 1011.95 1012.75 1013.52 1014.17 1014.78 1015.29 1015.99 1016.53 1017.10 1017.73 1018.16 1018.78 1019.40 1019.99 1020.58 1020.93 1021.08 1021.17 1021.37 1021.50 1021.27 1021.41 1021.62 1022.05 1021.87 1022.20 1022.54 1023.29 1023.46 1023.18 1023.10 1023.18 1023.89 1024.10 1024.11 1024.19 1024.51 1024.84
1010.95 1011.02 1010.73 1011.08 1011.60 1012.21 1012.93 1013.64 1014.12 1014.65 1015.32 1016.01 1016.60 1017.19 1017.83 1018.38 1018.86 1019.60 1020.18 1020.53 1020.84 1021.22 1021.47 1021.45 1021.28 1021.33 1021.53 1021.86 1022.06 1022.05 1022.25 1022.35 1023.22 1023.32 1023.28 1023.54 1023.67 1024.01 1024.22 1024.20 1024.23 1024.41 1024.73
1011.72 1011.83 1011.79 1012.06 1012.63 1012.98 1013.57 1013.99 1014.44 1014.99 1015.54 1016.13 1016.79 1017.38 1017.99 1018.50 1019.06 1019.66 1020.14 1020.53 1020.86 1021.14 1021.39 1021.41 1021.37 1021.38 1021.49 1021.53 1021.89 1022.14 1022.35 1022.49 1023.12 1023.24 1023.29 1023.53 1023.79 1023.97 1024.11 1024.56 1024.54 1024.69 1024.83
1012.30 1012.44 1012.48 1012.79 1013.31 1013.67 1013.93 1014.13 1014.64 1015.19 1015.74 1016.24 1016.81 1017.35 1017.91 1018.45 1018.97 1019.44 1019.87 1020.34 1020.67 1020.95 1021.17 1021.18 1021.14 1021.15 1021.25 1021.42 1021.65 1022.04 1022.49 1022.83 1022.86 1023.11 1023.33 1023.39 1023.65 1023.97 1024.23 1024.44 1024.58 1024.75 1025.17
1012.82 1012.95 1013.04 1013.32 1013.72 1014.04 1014.23 1014.31 1014.74 1015.22 1015.68 1016.22 1016.67 1017.21 1017.76 1018.31 1018.82 1019.23 1019.56 1019.95 1020.28 1020.62 1020.81 1020.86 1020.78 1020.79 1021.14 1021.34 1021.61 1022.12 1022.49 1022.74 1023.04 1023.30 1023.48 1023.46 1023.70 1023.99 1024.23 1024.32 1024.60 1024.82 1025.02
1013.45 1013.49 1013.56 1013.64 1013.74 1014.11 1014.41 1014.62 1015.05 1015.40 1015.81 1016.14 1016.54 1017.14 1017.73 1018.17 1018.62 1019.01 1019.27 1019.56 1019.75 1020.02 1020.31 1020.46 1020.51 1020.59 1020.86 1021.13 1021.51 1021.79 1022.13 1022.51 1022.79 1023.13 1023.26 1023.47 1023.80 1024.06 1024.16 1024.29 1024.35 1024.63 1024.85
1014.02 1014.06 1014.14 1014.17 1014.25 1014.43 1014.62 1014.97 1015.36 1015.59 1015.86 1016.09 1016.44 1017.10 1017.63 1017.97 1018.35 1018.72 1019.10 1019.28 1019.50 1019.74 1019.97 1020.14 1020.21 1020.32 1020.56 1020.86 1021.22 1021.58 1021.88 1022.10 1022.44 1022.83 1023.06 1023.30 1023.55 1023.69 1023.83 1023.98 1024.20 1024.39 1024.54
Wind_Speed
16 16 11 12 14 12 11 13 13 11 6 5 7 6 6 4 4 3 4 4 6 8 8 7 7 7 7 7 8 6 7 5 4 3 4 6 7 7 6 5 5 3 3
15 17 13 11 14 13 11 10 11 13 11 7 6 5 7 5 4 3 5 6 6 6 7 7 6 7 6 7 7 7 4 4 4 3 2 3 3 5 6 2 1 2 1
14 16 13 10 10 11 11 11 8 10 12 11 6 3 4 3 3 5 5 6 5 6 6 7 7 7 6 5 6 6 8 5 5 5 4 1 4 2 3 1 1 1 2
13 13 14 11 8 8 6 8 10 5 2 9 8 10 6 4 4 4 4 6 7 6 5 5 7 7 5 7 6 6 7 7 6 3 6 6 3 2 2 3 2 2 1
14 18 16 12 11 8 7 8 9 10 8 7 6 5 5 3 3 3 3 5 5 7 5 6 7 7 6 6 7 7 8 7 7 6 3 5 4 3 3 3 2 3 3
14 16 14 11 8 8 8 5 7 6 7 5 6 4 6 6 3 3 1 4 2 3 6 7 7 7 7 7 6 8 9 8 7 6 4 5 3 5 4 3 3 4 3
15 15 15 11 10 11 9 7 7 6 5 10 6 5 7 6 5 5 7 5 4 3 3 3 4 3 4 4 5 7 7 8 6 7 5 5 5 1 3 4 3 4 2
15 16 17 15 13 10 8 10 6 8 8 5 5 5 4 2 1 4 1 2 3 2 1 4 6 7 5 3 4 4 3 4 4 6 4 2 3 2 1 1 2 1 2
9 13 12 13 12 10 8 7 9 7 6 7 6 4 4 5 4 3 3 2 1 1 3 4 5 4 5 4 4 3 3 3 2 4 4 4 4 3 3 2 1 2 3
9 9 12 12 7 9 9 9 8 10 6 7 6 4 4 5 4 3 3 2 2 1 3 2 2 2 2 3 2 2 3 5 3 4 6 4 4 4 2 3 1 1 1
7 8 7 8 8 8 8 8 8 13 8 6 6 6 6 5 4 4 3 3 2 1 1 1 1 1 1 1 2 3 4 6 5 5 6 6 4 3 3 2 1 2 1
5 6 8 8 9 9 9 10 10 10 8 8 8 6 5 6 5 3 3 3 3 3 4 4 3 1 2 0 4 4 4 5 6 6 6 6 4 5 3 2 2 2 1
6 7 8 9 10 11 11 10 10 10 9 8 8 7 6 5 4 4 3 3 1 2 2 3 3 3 3 2 1 3 4 4 5 5 6 6 5 5 3 3 2 2 1
7 8 9 10 10 10 10 10 9 9 8 8 7 6 6 5 4 4 3 3 3 1 1 2 2 2 1 1 1 2 4 5 5 5 5 4 4 5 4 4 4 3 3
8 9 9 10 10 10 10 9 9 9 9 8 7 6 5 5 4 4 4 3 3 2 2 2 2 2 2 2 2 4 5 6 7 6 7 5 6 8 4 2 3 3 2
8 9 9 9 10 9 8 8 8 8 7 7 6 6 5 5 4 3 3 3 2 1 1 1 1 2 2 3 2 4 5 6 6 7 7 8 9 9 10 10 11 8 2
9 10 10 9 9 9 9 9 9 8 7 6 6 6 6 5 4 4 3 2 2 0 2 3 2 2 2 3 5 6 5 6 5 6 5 5 6 7 6 10 11 11 10
9 10 9 9 9 8 9 9 9 9 8 8 7 6 6 6 5 4 3 2 1 0 2 1 3 2 2 5 8 10 6 6 5 5 4 5 6 4 4 5 5 5 5
6 9 9 9 9 9 9 9 9 9 8 8 8 7 7 6 5 5 4 4 3 2 1 2 3 3 3 7 11 8 6 5 3 3 4 5 5 6 5 5 4 5 5
3 5 7 7 8 9 10 10 10 10 9 8 7 7 6 6 5 5 5 2 2 2 3 3 3 5 5 7 8 7 4 5 4 3 4 2 7 7 5 4 4 4 5
4 4 1 4 5 6 8 9 8 8 6 7 6 6 6 5 5 4 3 4 4 4 3 4 3 4 6 7 9 6 3 4 3 3 4 3 7 7 5 1 2 2 6
5 5 3 3 2 3 6 6 5 5 6 7 7 7 7 5 5 6 5 5 5 5 4 4 4 4 5 7 9 7 4 4 3 3 3 4 7 6 6 2 5 6 3
5 4 4 4 3 3 5 5 5 7 8 8 8 7 7 7 7 7 7 5 6 5 5 5 5 4 3 4 8 8 7 8 3 2 4 7 8 6 4 5 7 8 3
4 3 3 3 3 3 3 3 5 6 7 7 7 7 7 7 6 4 4 5 5 5 5 5 5 4 4 3 4 4 5 7 3 5 4 5 5 7 5 4 6 3 3
4 4 3 1 2 3 3 2 3 5 5 6 6 6 6 8 6 5 5 6 6 8 6 6 4 5 5 6 8 7 5 5 6 6 3 3 3 4 4 4 4 4 3
4 3 2 2 2 2 3 4 3 4 4 4 4 5 5 6 5 5 3 11 10 14 15 13 9 3 7 10 14 13 12 11 11 5 4 5 5 5 5 5 5 4 6
Wind_Direction
223 189 179 169 157 176 188 194 183 191 164 198 196 206 205 220 220 175 220 245 211 202 206 222 215 207 212 218 216 210 229 212 237 271 255 240 240 242 244 231 243 248 176
219 196 173 181 160 168 181 187 193 182 175 181 187 189 187 206 214 217 216 231 238 234 218 218 228 224 214 231 227 219 214 235 214 230 261 280 243 203 220 242 316 291 27
217 204 161 171 160 161 182 184 201 178 178 182 159 172 116 111 175 207 209 220 248 263 251 235 229 230 222 220 222 219 211 227 209 213 243 189 231 51 110 159 9 239 81
219 216 168 170 164 155 183 176 146 165 200 179 179 179 186 155 208 168 171 204 199 229 225 245 256 247 217 224 222 216 218 211 231 162 234 260 310 252 269 130 170 84 77
221 212 185 171 166 173 180 201 159 166 178 201 192 224 198 172 189 118 148 227 179 180 206 217 231 243 237 223 226 212 220 220 221 223 152 216 233 239 240 247 230 145 103
211 199 160 171 168 146 185 198 164 156 154 207 186 234 246 187 127 106 326 271 258 171 201 216 218 234 235 231 229 236 220 225 227 224 217 178 178 197 189 223 248 262 136
203 209 197 167 180 177 169 170 182 146 166 188 190 213 248 184 188 164 203 246 225 240 313 291 263 250 262 261 248 234 226 219 225 220 221 205 222 168 168 230 219 206 129
209 211 215 183 179 182 171 153 170 151 161 160 161 148 160 81 266 132 80 242 265 337 290 271 264 269 251 264 241 239 233 220 220 216 196 171 105 116 82 84 267 229 205
243 215 216 216 174 179 185 166 143 143 141 145 137 121 160 148 110 57 114 189 165 301 270 258 273 270 276 260 264 236 199 194 150 113 121 119 98 88 93 107 153 213 201
205 224 229 222 167 182 164 157 142 126 137 136 139 133 95 86 110 107 110 113 107 189 236 247 267 276 304 303 274 90 69 103 76 86 93 92 106 110 100 97 102 256 290
205 213 198 217 177 162 160 153 135 121 135 134 130 127 117 102 92 99 103 86 95 343 263 277 285 345 346 96 97 117 128 118 125 125 120 98 130 109 108 98 124 181 209
187 196 176 162 154 160 156 154 137 140 130 127 131 127 127 130 120 112 95 58 39 10 351 339 338 347 304 260 136 132 123 138 134 125 126 125 125 116 137 148 158 139 323
156 155 160 162 167 166 164 157 150 140 137 135 139 141 140 127 132 116 99 83 55 36 14 345 339 328 333 301 193 149 150 127 128 125 136 141 150 130 127 119 137 120 178
155 155 157 162 160 162 157 153 142 140 138 141 144 136 131 125 116 101 91 76 52 47 55 46 23 353 357 3 98 132 117 108 90 81 88 104 126 139 139 143 143 158 153
167 165 162 161 159 160 159 154 147 149 152 151 147 132 125 112 117 102 83 71 62 37 28 78 78 63 17 13 114 120 120 118 114 108 105 91 86 90 115 142 136 130 184
191 175 174 170 169 168 165 157 153 153 153 150 142 137 139 136 125 124 112 100 71 75 43 34 70 39 18 71 42 125 127 123 125 114 109 118 113 104 99 86 64 47 144
194 191 185 188 176 175 172 170 163 155 168 161 154 160 158 159 157 149 141 147 139 94 49 13 4 37 73 146 132 94 71 80 88 104 115 119 104 111 101 100 94 78 70
204 195 196 189 183 177 174 169 163 166 171 172 172 175 174 171 169 177 173 178 160 173 122 97 96 84 111 145 121 119 117 131 134 134 136 135 133 120 148 110 99 102 68
214 199 193 189 180 182 177 177 173 175 174 185 181 183 186 182 184 180 204 191 173 151 113 139 134 128 110 137 142 125 121 117 133 134 161 129 127 144 155 126 140 114 107
301 191 184 183 187 187 178 185 186 186 186 193 183 182 187 190 191 196 177 116 168 141 142 115 160 150 139 151 164 158 135 148 151 160 98 127 128 147 164 162 168 156 149
56 4 124 186 204 177 183 197 190 192 169 178 170 177 179 191 180 163 147 154 145 142 155 157 177 173 181 172 177 178 180 140 164 174 156 149 152 162 149 336 154 180 123
62 49 95 95 83 146 190 192 189 134 148 165 172 175 178 178 180 175 169 167 156 157 175 183 196 195 187 182 191 187 205 179 173 186 159 151 170 169 161 182 135 144 144
63 60 79 100 109 166 206 192 180 163 168 172 179 181 183 192 191 185 174 166 172 174 184 196 202 189 193 186 195 199 200 198 187 155 173 162 174 175 185 186 192 165 205
45 53 83 106 138 159 190 199 158 175 175 186 190 188 193 199 197 184 174 175 178 185 188 207 215 193 179 198 170 186 185 185 176 165 167 166 188 195 210 186 202 191 201
18 18 8 352 139 154 175 143 161 174 193 203 199 192 210 204 194 194 189 196 198 193 188 206 210 201 198 205 198 187 183 177 183 172 150 169 192 198 200 206 196 187 189
19 2 329 295 295 218 187 179 182 184 199 206 201 205 209 210 196 189 193 217 212 211 214 221 224 206 220 205 206 205 201 193 184 182 191 204 203 206 204 200 200 202 206